EW2811 Weather Reports


time (UTC)temp
C
wind
direction
speed
KPH
gust
KPH
rain 1hr
cm
rain 24hr
cm
rain mn
cm
humidity
%
barometer
mb
20260906173347 26 289 0.0 0.0 0.00 0.00 0.00 72 1019.0
20260906172352 26 290 0.0 0.0 0.00 0.00 0.00 75 1019.2
20260906172348 26 30 0.0 0.0 0.00 0.00 0.00 73 1019.1
20260906170347 25 338 0.0 0.0 0.00 0.00 0.00 75 1019.6
20260906165347 25 121 0.0 0.0 0.00 0.00 0.00 76 1019.6
20260906164346 25 290 0.0 0.0 0.00 0.00 0.00 79 1019.6
20260906163344 24 290 0.0 0.0 0.00 0.00 0.00 79 1019.7
20260906162349 23 290 0.0 0.0 0.00 0.00 0.00 83 1020.0
20260906162345 23 298 0.0 0.0 0.00 0.00 0.00 82 1019.8
20260906160345 23 298 0.0 0.0 0.00 0.00 0.00 84 1020.0
20260906155344 22 306 0.0 0.0 0.00 0.00 0.00 86 1020.0
20260906154344 22 291 0.0 0.0 0.00 0.00 0.00 87 1019.7
20260906153343 22 292 0.0 0.0 0.00 0.00 0.00 88 1019.9
20260906152343 22 292 0.0 0.0 0.00 0.00 0.00 89 1020.0
20260906151340 21 292 0.0 0.0 0.00 0.00 0.00 90 1020.1
20260906150338 21 292 0.0 0.0 0.00 0.00 0.00 90 1019.9
20260906145338 21 110 0.0 0.0 0.00 0.00 0.00 91 1019.9
20260906144339 21 98 0.0 0.0 0.00 0.00 0.00 91 1020.0
20260906143337 20 303 0.0 0.0 0.00 0.00 0.00 91 1020.0
20260906142339 20 303 0.0 0.0 0.00 0.00 0.00 91 1019.9
20260906142335 20 303 0.0 0.0 0.00 0.00 0.00 91 1020.0
20260906140339 20 119 0.0 0.0 0.00 0.00 0.00 91 1019.8
20260906140335 20 119 0.0 0.0 0.00 0.00 0.00 91 1019.9
20260906134339 20 119 0.0 0.0 0.00 0.00 0.00 91 1019.6
20260906134334 20 119 0.0 0.0 0.00 0.00 0.00 91 1019.7
20260906132335 19 119 0.0 0.0 0.00 0.00 0.00 91 1019.5
20260906131334 19 119 0.0 0.0 0.00 0.00 0.00 91 1019.5
20260906130338 19 119 0.0 0.0 0.00 0.00 0.00 91 1019.5
20260906130333 19 119 0.0 0.0 0.00 0.00 0.00 91 1019.5
20260906124332 18 119 0.0 0.0 0.00 0.00 0.00 91 1019.5
20260906123332 18 119 0.0 0.0 0.00 0.00 0.00 91 1019.5
20260906122333 18 119 0.0 0.0 0.00 0.00 0.00 91 1019.2
20260906121333 18 119 0.0 0.0 0.00 0.00 0.00 91 1019.2
20260906120333 18 119 0.0 0.0 0.00 0.00 0.00 91 1019.1
20260906115330 18 119 0.0 0.0 0.00 0.00 0.00 91 1019.1
20260906114330 18 119 0.0 0.0 0.00 0.00 0.00 91 1018.9
20260906113330 18 119 0.0 0.0 0.00 0.00 0.00 91 1018.9
20260906112329 19 119 0.0 0.0 0.00 0.00 0.00 91 1018.8
20260906111329 19 119 0.0 0.0 0.00 0.00 0.00 91 1018.9
20260906110329 19 119 0.0 0.0 0.00 0.00 0.00 91 1018.7
20260906105329 19 119 0.0 0.0 0.00 0.00 0.00 91 1018.7
20260906104327 19 119 0.0 0.0 0.00 0.00 0.00 91 1018.5
20260906103334 20 119 0.0 0.0 0.00 0.00 0.00 91 1018.5
20260906103330 20 119 0.0 0.0 0.00 0.00 0.00 91 1018.5
20260906101326 20 119 0.0 0.0 0.00 0.00 0.00 91 1018.5
20260906100324 20 119 0.0 0.0 0.00 0.00 0.00 91 1018.3
20260906095326 20 119 0.0 0.0 0.00 0.00 0.00 91 1018.0
20260906094324 20 119 0.0 0.0 0.00 0.00 0.00 91 1017.9
20260906093324 20 119 0.0 0.0 0.00 0.00 0.00 91 1017.8
20260906092324 20 119 0.0 0.0 0.00 0.00 0.00 91 1017.7
20260906091323 20 119 0.0 0.0 0.00 0.00 0.00 91 1017.7
20260906090323 20 119 0.0 0.0 0.00 0.00 0.00 91 1017.8
20260906085323 20 119 0.0 0.0 0.00 0.00 0.00 91 1017.8
20260906084322 20 119 0.0 0.0 0.00 0.00 0.00 91 1017.6
20260906083323 20 119 0.0 0.0 0.00 0.00 0.00 91 1017.8
20260906082326 20 119 0.0 0.0 0.00 0.00 0.00 91 1017.7
20260906082319 20 119 0.0 0.0 0.00 0.00 0.00 91 1017.8
20260906080320 20 119 0.0 0.0 0.00 0.00 0.00 91 1017.8
20260906075319 20 119 0.0 0.0 0.00 0.00 0.00 91 1017.8
20260906074320 20 119 0.0 0.0 0.00 0.00 0.00 91 1017.8
20260906073326 20 119 0.0 0.0 0.00 0.00 0.00 91 1018.1
20260906073318 20 119 0.0 0.0 0.00 0.00 0.00 91 1017.9
20260906072320 20 119 0.0 0.0 0.00 0.00 0.00 91 1017.9
20260906071420 20 119 0.0 0.0 0.00 0.00 0.00 91 1017.9
20260906065315 20 119 0.0 0.0 0.00 0.00 0.00 91 1018.1
20260906064315 20 119 0.0 0.0 0.00 0.00 0.00 91 1018.2
20260906063316 20 119 0.0 0.0 0.00 0.00 0.00 91 1018.1
20260906062316 20 119 0.0 0.0 0.00 0.00 0.00 90 1018.2
20260906061316 21 119 0.0 0.0 0.00 0.00 0.00 90 1018.3
20260906060319 21 119 0.0 0.0 0.00 0.00 0.00 90 1018.2
20260906060315 21 119 0.0 0.0 0.00 0.00 0.00 90 1018.3
20260906054316 21 119 0.0 0.0 0.00 0.00 0.00 90 1018.2
20260906053321 21 118 0.0 0.0 0.00 0.00 0.00 90 1018.1
20260906053315 21 118 0.0 0.0 0.00 0.00 0.00 90 1018.2
20260906052315 21 118 0.0 0.0 0.00 0.00 0.00 90 1018.3
20260906050315 21 118 0.0 0.0 0.00 0.00 0.00 90 1018.2
20260906045315 21 119 0.0 0.0 0.00 0.00 0.00 89 1018.2
20260906044314 21 119 0.0 0.0 0.00 0.00 0.00 89 1018.2
20260906043315 21 119 0.0 0.0 0.00 0.00 0.00 89 1018.3
20260906042314 21 119 0.0 0.0 0.00 0.00 0.00 89 1018.3
20260906041313 21 119 0.0 0.0 0.00 0.00 0.00 88 1018.2
20260906040313 21 119 0.0 0.0 0.00 0.00 0.00 88 1018.4
20260906035314 21 119 0.0 0.0 0.00 0.00 0.00 88 1018.3
20260906034312 21 119 0.0 0.0 0.00 0.00 0.00 87 1018.2
20260906033312 22 119 0.0 0.0 0.00 0.00 0.00 87 1018.5
20260906032313 22 119 0.0 0.0 0.00 0.00 0.00 86 1018.5
20260906031312 22 119 0.0 0.0 0.00 0.00 0.00 86 1018.5
20260906030312 22 119 0.0 0.0 0.00 0.00 0.00 85 1018.6
20260906025312 22 119 0.0 0.0 0.00 0.00 0.00 85 1018.7
20260906024313 22 119 0.0 0.0 0.00 0.00 0.00 84 1018.6
20260906023312 22 119 0.0 0.0 0.00 0.00 0.00 83 1018.2
20260906022312 22 119 0.0 0.0 0.00 0.00 0.00 82 1018.2
20260906021313 23 119 0.0 0.0 0.00 0.00 0.00 81 1017.9
20260906020313 23 119 0.0 0.0 0.00 0.00 0.00 81 1017.5
20260906015310 23 119 0.0 0.0 0.00 0.00 0.00 79 1017.2
20260906014310 23 120 0.0 0.0 0.00 0.00 0.00 78 1017.0
20260906013310 23 120 0.0 0.0 0.00 0.00 0.00 78 1016.7
20260906012310 24 119 0.0 0.0 0.00 0.00 0.00 77 1016.7
20260906011310 24 120 0.0 0.0 0.00 0.00 0.00 76 1016.5
20260906010311 25 120 0.0 0.0 0.00 0.00 0.00 74 1016.2
20260906005313 25 120 0.0 0.0 0.00 0.00 0.00 72 1015.8
20260906005308 25 120 0.0 0.0 0.00 0.00 0.00 73 1015.8
20260906003309 25 120 0.0 0.0 0.00 0.00 0.00 71 1015.9
20260906002308 26 120 0.0 0.0 0.00 0.00 0.00 71 1015.8
20260906001312 26 120 0.0 0.0 0.00 0.00 0.00 70 1015.9
20260906001308 26 120 0.0 0.0 0.00 0.00 0.00 71 1015.9
20260906000306 26 120 0.0 0.0 0.00 0.00 0.00 70 1015.8
20260905235416 27 120 0.0 0.0 0.00 0.00 0.00 69 1015.8
20260905233304 27 116 0.0 0.0 0.00 0.00 0.00 68 1015.4
20260905232306 27 111 0.0 0.0 0.00 0.00 0.00 68 1015.3
20260905231304 27 105 0.0 0.0 0.00 0.00 0.00 68 1015.5
20260905230304 27 114 0.0 0.0 0.00 0.00 0.00 67 1015.2
20260905225308 28 111 0.0 0.0 0.00 0.00 0.00 65 1015.3
20260905225305 28 118 0.0 0.0 0.00 0.00 0.00 66 1015.3
20260905223303 28 86 0.0 0.0 0.00 0.00 0.00 65 1015.4
20260905222306 28 86 0.0 0.0 0.00 0.00 0.00 65 1015.7
20260905221303 28 111 0.0 0.0 0.00 0.00 0.00 65 1015.8
20260905220306 28 107 0.0 0.0 0.00 0.00 0.00 66 1015.7
20260905215305 28 109 0.0 0.0 0.00 0.00 0.00 67 1015.5
20260905214303 28 109 0.0 0.0 0.00 0.00 0.00 67 1015.4
20260905213303 28 93 0.0 0.0 0.00 0.00 0.00 66 1015.5
20260905212306 28 118 0.0 0.0 0.00 0.00 0.00 65 1015.9
20260905211303 28 137 0.0 0.0 0.00 0.00 0.00 65 1016.3
20260905210303 29 137 0.0 0.0 0.00 0.00 0.00 66 1016.5
20260905205300 29 205 0.0 0.0 0.00 0.00 0.00 64 1016.6
20260905204259 29 316 0.0 0.0 0.00 0.00 0.00 65 1016.7
20260905203305 28 113 0.0 0.0 0.00 0.00 0.00 65 1017.1
20260905203300 28 288 0.0 0.0 0.00 0.00 0.00 65 1017.0
20260905201259 28 113 0.0 0.0 0.00 0.00 0.00 65 1017.2
20260905200300 28 202 0.0 0.0 0.00 0.00 0.00 68 1017.3
20260905195300 28 202 0.0 0.0 0.00 0.00 0.00 69 1017.4
20260905194300 28 202 0.0 0.0 0.00 0.00 0.00 68 1017.5
20260905193300 28 202 0.0 0.0 0.00 0.00 0.00 66 1017.6
20260905192300 28 202 0.0 0.0 0.00 0.00 0.00 69 1017.6
20260905191300 27 276 0.0 0.0 0.00 0.00 0.00 71 1017.7
20260905190259 27 276 0.0 0.0 0.00 0.00 0.00 73 1017.6
20260905185300 26 276 0.0 0.0 0.00 0.00 0.00 76 1017.6
20260905184259 26 276 0.0 0.0 0.00 0.00 0.00 77 1017.6
20260905183258 26 306 0.0 0.0 0.00 0.00 0.00 76 1017.7
20260905182256 26 306 0.0 0.0 0.00 0.00 0.00 78 1017.9
20260905181253 25 306 0.0 0.0 0.00 0.00 0.00 81 1017.9
20260905180258 24 106 0.0 0.0 0.00 0.00 0.00 85 1018.0
20260905180254 25 105 0.0 0.0 0.00 0.00 0.00 83 1018.0
20260905174251 23 92 0.0 0.0 0.00 0.00 0.00 86 1018.1